CW8809 Weather Reports


time (UTC)temp
C
wind
direction
speed
KPH
gust
KPH
rain 1hr
cm
rain 24hr
cm
rain mn
cm
humidity
%
barometer
mb
20260505085955 10 315 0.0 0.0 0.00 0.05 0.08 77 1020.2
20260505084952 10 337 0.0 0.0 0.00 0.05 0.08 76 1020.2
20260505083919 10 292 0.0 0.0 0.00 0.05 0.08 76 1020.2
20260505082917 10 337 0.0 0.0 0.00 0.05 0.08 75 1019.9
20260505081915 10 292 0.0 0.0 0.00 0.05 0.08 74 1019.9
20260505080913 11 337 0.0 0.0 0.00 0.05 0.08 74 1019.9
20260505075912 11 247 0.0 0.0 0.00 0.05 0.08 73 1019.6
20260505074909 11 292 0.0 0.0 0.00 0.05 0.08 72 1019.6
20260505073908 11 292 0.0 0.0 0.00 0.05 0.08 72 1019.4
20260505072906 12 292 0.0 0.0 0.00 0.05 0.08 71 1019.5
20260505071904 12 270 0.0 0.0 0.00 0.05 0.08 70 1019.5
20260505070902 12 292 0.0 0.0 0.00 0.05 0.08 68 1019.2
20260505065827 12 0 0.0 0.0 0.00 0.05 0.08 67 1019.3
20260505064825 13 315 0.0 0.0 0.00 0.05 0.08 67 1019.0
20260505063752 13 292 0.0 0.0 0.00 0.05 0.08 66 1019.1
20260505062750 13 337 0.0 0.0 0.00 0.05 0.08 65 1019.1
20260505061747 13 247 0.0 0.0 0.00 0.05 0.08 64 1018.8
20260505060640 13 292 0.0 0.0 0.00 0.05 0.08 65 1018.5
20260505055503 14 337 0.0 0.0 0.00 0.05 0.08 64 1018.2
20260505054429 14 247 0.0 0.0 0.00 0.05 0.08 64 1018.2
20260505053427 15 292 0.0 0.0 0.00 0.05 0.08 63 1017.9
20260505052353 15 337 0.0 0.0 0.00 0.05 0.08 62 1018.0
20260505051350 15 292 0.0 0.0 0.00 0.05 0.08 61 1018.0
20260505050318 15 270 0.0 0.0 0.00 0.10 0.08 61 1018.0
20260505041203 15 270 0.0 0.0 0.00 0.10 0.08 61 1017.7
20260505040200 15 270 0.0 0.0 0.00 0.10 0.08 62 1018.0
20260505035159 15 292 0.0 0.0 0.00 0.10 0.08 60 1018.0
20260505034156 15 292 0.0 0.0 0.00 0.10 0.08 60 1018.4
20260505033154 15 270 0.0 0.0 0.00 0.10 0.08 61 1018.3
20260505032152 15 0 0.0 0.0 0.00 0.10 0.08 61 1018.3
20260505031149 15 247 0.0 0.0 0.00 0.10 0.08 61 1018.3
20260505030045 15 292 0.0 0.0 0.00 0.10 0.08 62 1018.6
20260505025043 14 270 0.0 0.0 0.00 0.10 0.08 61 1018.6
20260505024042 14 247 0.0 0.0 0.00 0.10 0.08 62 1018.9
20260505023040 14 270 0.0 0.0 0.00 0.10 0.08 63 1018.9
20260505022038 14 292 0.0 0.0 0.00 0.10 0.08 63 1019.2
20260505021036 14 270 0.0 0.0 0.00 0.10 0.08 64 1019.6
20260505020033 14 247 0.0 0.0 0.05 0.10 0.08 65 1019.5
20260505015032 13 292 0.0 0.0 0.05 0.10 0.08 65 1019.5
20260505014029 13 337 0.0 0.0 0.05 0.10 0.08 65 1019.8
20260505013027 13 337 0.0 0.0 0.05 0.10 0.08 66 1019.5
20260505011954 13 225 0.0 0.0 0.05 0.10 0.08 65 1019.5
20260505010952 13 270 0.0 0.0 0.05 0.10 0.08 67 1019.5
20260505005949 13 315 0.0 0.0 0.00 0.10 0.00 68 1019.5
20260505004947 12 292 0.0 0.0 0.00 0.10 0.00 71 1019.4
20260505003944 12 292 0.0 0.0 0.00 0.10 0.00 70 1019.7
20260505002941 12 0 0.0 0.0 0.00 0.10 0.00 70 1019.7
20260505001939 12 270 0.0 0.0 0.00 0.10 0.00 73 1019.4
20260505000937 12 270 0.0 0.0 0.00 0.10 0.00 73 1019.0
20260504235936 11 315 0.0 0.0 0.00 0.15 0.00 76 1019.0
20260504234933 11 270 0.0 0.0 0.00 0.15 0.00 76 1019.0
20260504233931 11 292 0.0 0.0 0.00 0.15 0.00 77 1019.0
20260504232825 11 0 0.0 0.0 0.00 0.15 0.00 77 1019.0
20260504231752 11 247 0.0 0.0 0.00 0.15 0.00 78 1018.6
20260504230719 11 292 0.0 0.0 0.00 0.15 0.00 77 1018.9
20260504225717 11 292 0.0 0.0 0.00 0.20 0.00 76 1019.0
20260504224715 11 292 0.0 0.0 0.00 0.20 0.00 76 1019.0
20260504223641 11 292 0.0 0.0 0.00 0.20 0.00 78 1019.0
20260504222639 10 315 0.0 0.0 0.00 0.20 0.00 81 1018.9
20260504221637 10 292 0.0 0.0 0.00 0.20 0.00 81 1018.8
20260504220634 9 292 0.0 0.0 0.00 0.20 0.00 83 1018.7
20260504215600 8 292 0.0 0.0 0.00 0.36 0.00 83 1018.3
20260504214558 8 292 0.0 0.0 0.00 0.36 0.00 83 1018.3
20260504213525 8 315 0.0 0.0 0.00 0.36 0.00 83 1018.0
20260504212522 8 315 0.0 0.0 0.00 0.36 0.00 84 1018.0
20260504211450 8 315 0.0 0.0 0.00 0.36 0.00 84 1017.9
20260504210447 7 315 0.0 0.0 0.00 0.36 0.00 84 1017.5
20260504205445 7 337 0.0 0.0 0.00 0.51 0.00 83 1017.5
20260504204443 7 337 0.0 0.0 0.00 0.51 0.00 83 1017.5
20260504203440 7 337 0.0 0.0 0.00 0.51 0.00 83 1017.2
20260504202438 7 315 0.0 0.0 0.00 0.51 0.00 84 1017.2
20260504201403 6 22 0.0 0.0 0.00 0.51 0.00 84 1017.1
20260504200401 6 67 0.0 0.0 0.00 0.51 0.00 84 1016.8
20260504195400 7 67 0.0 0.0 0.00 0.51 0.00 85 1016.9
20260504194358 7 157 0.0 0.0 0.00 0.51 0.00 85 1016.6
20260504193325 7 292 0.0 0.0 0.00 0.51 0.00 84 1016.3
20260504192251 7 292 0.0 0.0 0.00 0.51 0.00 84 1016.4
20260504191249 7 315 0.0 0.0 0.00 0.51 0.00 84 1016.4
20260504190247 7 292 0.0 0.0 0.00 0.66 0.00 84 1016.4
20260504185213 8 315 0.0 0.0 0.00 0.66 0.00 84 1016.1
20260504184211 8 292 0.0 0.0 0.00 0.66 0.00 84 1016.1
20260504183209 8 315 0.0 0.0 0.00 0.66 0.00 84 1016.2
20260504182207 8 292 0.0 0.0 0.00 0.66 0.00 84 1015.9
20260504181205 8 247 0.0 0.0 0.00 0.66 0.00 84 1015.9
20260504180131 8 292 0.0 0.0 0.00 0.79 0.00 85 1015.9
20260504175129 8 270 0.0 0.0 0.00 0.79 0.00 85 1015.9
20260504174126 8 292 0.0 0.0 0.00 0.79 0.00 85 1015.9
20260504173124 8 292 0.0 0.0 0.00 0.79 0.00 85 1015.9
20260504172051 8 292 0.0 0.0 0.00 0.79 0.00 85 1015.9
20260504171049 8 315 0.0 0.0 0.00 0.79 0.00 85 1016.0
20260504150817 8 292 0.0 0.0 0.00 0.84 0.00 84 1016.9
20260504140702 8 292 0.0 0.0 0.00 1.04 0.00 78 1016.9
20260504130650 8 270 0.0 0.0 0.00 1.04 1.02 74 1016.9
20260504110557 10 292 0.0 0.0 0.00 1.09 1.02 82 1017.0
20260504100235 10 292 0.0 0.0 0.00 1.19 1.02 84 1017.0